• In Hungary
  • List of Countries
  • For 7 days
  • Water Temperature
  • Satellite Maps
  • Weather Map
  • News
  • Weather Widgets
  • user-avatar
    Login

    Hourly Weather Bolshoy Bohot

    Today, 19 September, Wednesday

    Time Temperature Precipitation Wind Pressure Humidity
    00:00 +9°C° 0 mm 2 mps 738 mmHg 89%
    01:00 +10°C° 0 mm 3 mps 738 mmHg 87%
    02:00 +11°C° 0 mm 3 mps 738 mmHg 86%
    03:00 +11°C° 0 mm 3 mps 738 mmHg 89%
    04:00 +11°C° 0 mm 3 mps 738 mmHg 92%
    05:00 +10°C° 0 mm 3 mps 737 mmHg 95%
    06:00 +12°C° 0 mm 3 mps 737 mmHg 90%
    07:00 +13°C° 0 mm 3 mps 737 mmHg 85%
    08:00 +14°C° 0 mm 4 mps 737 mmHg 81%
    09:00 +17°C° 0 mm 4 mps 737 mmHg 73%
    10:00 +19°C° 0 mm 4 mps 737 mmHg 66%
    11:00 +20°C° 0 mm 4 mps 737 mmHg 58%
    12:00 +21°C° 0 mm 4 mps 737 mmHg 56%
    13:00 +22°C° 0 mm 4 mps 737 mmHg 53%
    14:00 +23°C° 0 mm 4 mps 737 mmHg 51%
    15:00 +22°C° 0 mm 4 mps 737 mmHg 57%
    16:00 +21°C° 0 mm 3 mps 736 mmHg 63%
    17:00 +20°C° 0 mm 3 mps 736 mmHg 69%
    18:00 +18°C° 0 mm 3 mps 736 mmHg 75%
    19:00 +17°C° 0 mm 3 mps 736 mmHg 81%
    20:00 +16°C° 0 mm 3 mps 736 mmHg 87%
    21:00 +16°C° 0 mm 3 mps 736 mmHg 89%
    22:00 +14°C° 0 mm 3 mps 736 mmHg 91%
    23:00 +14°C° 0 mm 3 mps 736 mmHg 93%

    Tomorrow, 20 September, Thursday

    Time Temperature Precipitation Wind Pressure Humidity
    00:00 +15°C° 0 mm 2 mps 737 mmHg 94%
    01:00 +15°C° 0 mm 2 mps 737 mmHg 96%
    02:00 +15°C° 0 mm 2 mps 737 mmHg 97%
    03:00 +14°C° 0 mm 2 mps 737 mmHg 97%
    04:00 +14°C° 0 mm 2 mps 737 mmHg 98%
    05:00 +13°C° 0 mm 2 mps 737 mmHg 98%
    06:00 +14°C° 0 mm 2 mps 737 mmHg 95%
    07:00 +14°C° 0 mm 2 mps 738 mmHg 92%
    08:00 +14°C° 0 mm 3 mps 738 mmHg 89%
    09:00 +16°C° 0 mm 3 mps 738 mmHg 81%
    10:00 +18°C° 0 mm 3 mps 739 mmHg 72%
    11:00 +20°C° 0 mm 3 mps 739 mmHg 64%
    12:00 +20°C° 0 mm 3 mps 739 mmHg 61%
    13:00 +21°C° 0 mm 3 mps 739 mmHg 59%
    14:00 +22°C° 0 mm 3 mps 739 mmHg 56%
    15:00 +21°C° 0 mm 2 mps 739 mmHg 62%
    16:00 +20°C° 0 mm 2 mps 739 mmHg 68%
    17:00 +19°C° 0 mm 2 mps 739 mmHg 74%
    18:00 +18°C° 0 mm 2 mps 739 mmHg 79%
    19:00 +16°C° 0 mm 2 mps 739 mmHg 85%
    20:00 +15°C° 0 mm 2 mps 739 mmHg 91%
    21:00 +15°C° 0 mm 2 mps 739 mmHg 92%
    22:00 +14°C° 0 mm 2 mps 739 mmHg 93%
    23:00 +14°C° 0 mm 2 mps 739 mmHg 94%

    Day after tomorrow, 21 September, Friday

    Time Temperature Precipitation Wind Pressure Humidity
    00:00 +14°C° 0 mm 2 mps 739 mmHg 94%
    01:00 +14°C° 0 mm 2 mps 740 mmHg 94%
    02:00 +14°C° 0 mm 2 mps 740 mmHg 94%
    03:00 +14°C° 0 mm 2 mps 740 mmHg 94%
    04:00 +14°C° 0 mm 2 mps 740 mmHg 94%
    05:00 +14°C° 0 mm 2 mps 740 mmHg 94%
    06:00 +15°C° 0 mm 2 mps 740 mmHg 90%
    07:00 +16°C° 0 mm 2 mps 740 mmHg 86%
    08:00 +17°C° 0 mm 3 mps 740 mmHg 82%
    09:00 +18°C° 0 mm 3 mps 740 mmHg 77%
    10:00 +20°C° 0 mm 3 mps 740 mmHg 72%
    11:00 +22°C° 0 mm 3 mps 740 mmHg 67%
    12:00 +24°C° 0 mm 3 mps 740 mmHg 64%
    13:00 +24°C° 0 mm 3 mps 740 mmHg 62%
    14:00 +25°C° 0 mm 4 mps 740 mmHg 59%
    15:00 +24°C° 0 mm 3 mps 740 mmHg 65%
    16:00 +22°C° 0 mm 3 mps 739 mmHg 70%
    17:00 +21°C° 0 mm 2 mps 739 mmHg 75%
    18:00 +20°C° 0 mm 3 mps 739 mmHg 79%
    19:00 +20°C° 0 mm 3 mps 739 mmHg 83%
    20:00 +19°C° 0 mm 3 mps 738 mmHg 87%
    21:00 +18°C° 0 mm 3 mps 738 mmHg 87%
    22:00 +18°C° 0 mm 3 mps 738 mmHg 87%
    23:00 +18°C° 0 mm 4 mps 738 mmHg 86%

    22 September, Saturday

    Time Temperature Precipitation Wind Pressure Humidity
    00:00 +18°C° 0 mm 4 mps 737 mmHg 85%
    01:00 +17°C° 0 mm 4 mps 737 mmHg 83%
    02:00 +17°C° 0 mm 4 mps 737 mmHg 82%
    03:00 +17°C° 0 mm 4 mps 736 mmHg 80%
    04:00 +16°C° 0 mm 5 mps 736 mmHg 79%
    05:00 +16°C° 0 mm 5 mps 735 mmHg 77%
    06:00 +16°C° 0 mm 5 mps 735 mmHg 73%
    07:00 +17°C° 0 mm 6 mps 734 mmHg 69%
    08:00 +19°C° 0 mm 6 mps 734 mmHg 65%
    09:00 +20°C° 0 mm 6 mps 734 mmHg 61%
    10:00 +21°C° 0 mm 7 mps 733 mmHg 56%
    11:00 +23°C° 0 mm 7 mps 733 mmHg 52%
    12:00 +23°C° 0 mm 6 mps 733 mmHg 53%
    13:00 +23°C° 0 mm 6 mps 733 mmHg 54%
    14:00 +23°C° 0 mm 6 mps 733 mmHg 55%
    15:00 +20°C° 0.5 mm 6 mps 733 mmHg 65%
    16:00 +16°C° 0.5 mm 5 mps 734 mmHg 75%
    17:00 +13°C° 0.5 mm 5 mps 734 mmHg 85%
    18:00 +12°C° 0.4 mm 4 mps 735 mmHg 87%
    19:00 +10°C° 0.4 mm 3 mps 735 mmHg 89%
    20:00 +9°C° 0.4 mm 2 mps 736 mmHg 90%
    21:00 +9°C° 0 mm 2 mps 736 mmHg 91%
    22:00 +9°C° 0 mm 2 mps 736 mmHg 92%
    23:00 +9°C° 0 mm 2 mps 737 mmHg 92%

    23 September, Sunday

    Time Temperature Precipitation Wind Pressure Humidity
    00:00 +9°C° 0 mm 2 mps 737 mmHg 93%
    01:00 +9°C° 0 mm 2 mps 737 mmHg 94%
    02:00 +9°C° 0 mm 2 mps 737 mmHg 94%
    03:00 +9°C° 0.1 mm 2 mps 737 mmHg 95%
    04:00 +9°C° 0.1 mm 2 mps 737 mmHg 95%
    05:00 +9°C° 0.1 mm 2 mps 737 mmHg 96%
    06:00 +9°C° 0.1 mm 2 mps 737 mmHg 94%
    07:00 +10°C° 0.1 mm 2 mps 737 mmHg 92%
    08:00 +10°C° 0.1 mm 2 mps 737 mmHg 90%
    09:00 +10°C° 0.1 mm 2 mps 737 mmHg 88%
    10:00 +12°C° 0.1 mm 2 mps 737 mmHg 85%
    11:00 +12°C° 0.1 mm 2 mps 737 mmHg 82%
    12:00 +13°C° 0 mm 2 mps 737 mmHg 79%
    13:00 +13°C° 0 mm 2 mps 737 mmHg 75%
    14:00 +13°C° 0 mm 2 mps 737 mmHg 71%
    15:00 +13°C° 0 mm 2 mps 737 mmHg 74%
    16:00 +13°C° 0 mm 1 mps 737 mmHg 76%
    17:00 +12°C° 0 mm 1 mps 737 mmHg 78%
    18:00 +11°C° 0 mm 1 mps 737 mmHg 82%
    19:00 +10°C° 0 mm 1 mps 737 mmHg 86%
    20:00 +8°C° 0 mm 2 mps 737 mmHg 89%
    21:00 +8°C° 0 mm 1 mps 737 mmHg 90%
    22:00 +8°C° 0 mm 1 mps 737 mmHg 91%
    23:00 +8°C° 0 mm 1 mps 738 mmHg 91%

    24 September, Monday

    Time Temperature Precipitation Wind Pressure Humidity
    00:00 +7°C° 0 mm 1 mps 738 mmHg 92%
    01:00 +7°C° 0 mm 1 mps 738 mmHg 93%
    02:00 +7°C° 0 mm 1 mps 738 mmHg 93%
    03:00 +6°C° 0 mm 1 mps 738 mmHg 94%
    04:00 +6°C° 0 mm 1 mps 738 mmHg 95%
    05:00 +6°C° 0 mm 1 mps 738 mmHg 95%
    06:00 +7°C° 0 mm 1 mps 738 mmHg 91%
    07:00 +8°C° 0 mm 1 mps 739 mmHg 86%
    08:00 +9°C° 0 mm 1 mps 739 mmHg 82%
    09:00 +10°C° 0 mm 2 mps 739 mmHg 74%
    10:00 +13°C° 0 mm 2 mps 739 mmHg 66%
    11:00 +14°C° 0 mm 2 mps 739 mmHg 59%
    12:00 +15°C° 0 mm 2 mps 739 mmHg 57%
    13:00 +15°C° 0 mm 2 mps 738 mmHg 55%
    14:00 +16°C° 0 mm 2 mps 738 mmHg 53%
    15:00 +15°C° 0 mm 2 mps 737 mmHg 58%
    16:00 +14°C° 0 mm 2 mps 737 mmHg 63%
    17:00 +13°C° 0 mm 2 mps 737 mmHg 68%
    18:00 +13°C° 0 mm 2 mps 736 mmHg 69%
    19:00 +13°C° 0 mm 2 mps 736 mmHg 70%
    20:00 +11°C° 0 mm 3 mps 736 mmHg 70%
    21:00 +11°C° 0 mm 3 mps 736 mmHg 70%
    22:00 +11°C° 0 mm 3 mps 736 mmHg 70%
    23:00 +11°C° 0 mm 3 mps 735 mmHg 70%
    Show more